This is the latest recevied weather packets stored in our database for station/object K7LDN-13. If no packets are shown the sender has not sent any weather packets the latest 10 day(s).
| Time | Temp. | Humidity | Pressure | Rain* | Wind** | Luminosity | Snow |
|---|---|---|---|---|---|---|---|
| 1777815570 | 11.11° C | 45% | 1019.3 hPa | 0 mm | - | 106 W/m² | - |
| 1777815267 | 10.56° C | 44% | 1019 hPa | 0 mm | - | 99 W/m² | - |
| 1777814962 | 10° C | 42% | 1018.9 hPa | 0 mm | - | 90 W/m² | - |
| 1777814660 | 8.89° C | 47% | 1018.8 hPa | 0 mm | - | 80 W/m² | - |
| 1777814356 | 8.89° C | 47% | 1018.7 hPa | 0 mm | - | 63 W/m² | - |
| 1777814053 | 8.89° C | 46% | 1018.9 hPa | 0 mm | - | 54 W/m² | - |
| 1777813750 | 9.44° C | 45% | 1018.7 hPa | 0 mm | - | 47 W/m² | - |
| 1777813448 | 9.44° C | 43% | 1018.7 hPa | 0 mm | - | 42 W/m² | - |
| 1777813145 | 9.44° C | 44% | 1018.7 hPa | 0 mm | - | 38 W/m² | - |
| 1777812843 | 9.44° C | 43% | 1018.7 hPa | 0 mm | - | 28 W/m² | - |
| 1777812539 | 9.44° C | 43% | 1018.7 hPa | 0 mm | - | 21 W/m² | - |
| 1777812237 | 9.44° C | 42% | 1018.7 hPa | 0 mm | - | 15 W/m² | - |
| 1777811935 | 8.89° C | 43% | 1018.7 hPa | 0 mm | - | 11 W/m² | - |
| 1777811634 | 8.89° C | 44% | 1018.6 hPa | 0 mm | - | 7 W/m² | - |
| 1777811333 | 8.89° C | 49% | 1018.5 hPa | 0 mm | - | 4 W/m² | - |
| 1777811031 | 8.33° C | 45% | 1018.7 hPa | 0 mm | - | 2 W/m² | - |
| 1777810728 | 8.33° C | 48% | 1018.6 hPa | 0 mm | - | 1 W/m² | - |
| 1777810424 | 8.33° C | 48% | 1018.5 hPa | 0 mm | - | 1 W/m² | - |
| 1777810120 | 8.89° C | 45% | 1018.7 hPa | 0 mm | - | 0 W/m² | - |
| 1777809818 | 9.44° C | 45% | 1018.5 hPa | 0 mm | - | 0 W/m² | - |
| 1777809516 | 10° C | 44% | 1018.5 hPa | 0 mm | - | 0 W/m² | - |
| 1777809213 | 10° C | 43% | 1018.8 hPa | 0 mm | - | 0 W/m² | - |
| 1777808911 | 10° C | 41% | 1018.8 hPa | 0 mm | - | 0 W/m² | - |
| 1777808607 | 10° C | 40% | 1019 hPa | 0 mm | - | 0 W/m² | - |
| 1777808304 | 10° C | 40% | 1019 hPa | 0 mm | - | 0 W/m² | - |
* Rain latest hour (hover to see other rain measurements)
** Current wind speed in m/s (hover to see current wind gust speed)